Location: Ashtead
(51.3000°N, 0.3000°W)
Time: 03:39:26
(UTC+00:00)

CZ-2D R/B - Pass Details

Date: 26 September 2023
Orbit: 790 x 844 km, 98.8° (Epoch: 29 November)

Event Time Altitude Azimuth Distance (km) Brightness Sun altitude
Rises 03:18:01 0° 9° (N) 3,412 5.9 -23.9°
Reaches altitude 10° 03:20:39 10° 359° (N) 2,468 5.0 -23.6°
Enters shadow 03:25:15 29° 302° (WNW) 1,491 3.2 -23.0°
